Location: Laas
(43.4693°N, 0.3073°E)
Time: 15:34:42
(UTC+00:00)

SL-08 R/B - Pass Details

Date: 25 October 2020
Orbit: 946 x 994 km, 83.0° (Epoch: 23 November)

Event Time Altitude Azimuth Distance (km) Brightness Sun altitude
Rises 18:11:46 0° 355° (N) 3,665 7.5 -13.7°
Reaches altitude 10° 18:14:21 10° 360° (N) 2,707 6.8 -14.2°
Maximum altitude 18:20:26 57° 78° (ENE) 1,111 4.5 -15.3°
Drops below altitude 10° 18:26:25 10° 157° (SSE) 2,664 6.6 -16.4°
Sets 18:28:56 0° 162° (SSE) 3,602 7.3 -16.9°
